Longview, TX

3:16 PM CDT on April 20, 2018 (GMT -0500)
Gregg County

Weather History for KGGG - July, 2013

Change the Weather History Date:

Wednesday, July 24, 2013

  Actual Average Record
Temperature  
Mean Temperature 83 °F 84 °F  
Max Temperature 91 °F 94 °F 106 °F (1943)
Min Temperature 74 °F 74 °F 60 °F (1947)
Degree Days  
Heating Degree Days 0 0  
Month to date heating degree days 0 0  
Since 1 June heating degree days 0 0  
Since 1 July heating degree days 0 0  
Cooling Degree Days 18 19  
Month to date cooling degree days 418 443  
Year to date cooling degree days 1322 1261  
Since 1 June cooling degree days 934 882  
Growing Degree Days 34 (Base 50)    
Moisture  
Dew Point 70 °F    
Average Humidity 66    
Maximum Humidity 79    
Minimum Humidity 52    
Precipitation  
Precipitation T in 0.07 in 1.36 in (1902)
Month to date precipitation 1.11 2.40  
Year to date precipitation 19.26 27.14  
Snow  
Snow 0.00 in - - ()
Month to date snowfall 0.0  
Since 1 June snowfall 0.0  
Since 1 July snowfall 0.0  
Snow Depth 0.00 in    
Sea Level Pressure  
Sea Level Pressure 29.92 in    
Wind  
Wind Speed 7 mph (WNW)    
Max Wind Speed 21 mph    
Max Gust Speed 26 mph    
Visibility 10 miles    
Events Rain    
T = Trace of Precipitation, MM = Missing Value Source: NWS Daily Summary

Daily Weather History Graph

Daily Weather History Graph

Search for Another Location

Airport or City:

Astronomy

Jul. 24, 2013 Rise Set
Actual Time 6:28 AM CDT 8:22 PM CDT
Civil Twilight 6:01 AM CDT 8:49 PM CDT
Nautical Twilight 5:28 AM CDT 9:22 PM CDT
Astronomical Twilight 4:52 AM CDT 9:57 PM CDT
Moon 9:41 PM CDT (7/24) 8:38 AM CDT (7/24)
Length of Visible Light 14h 48m
Length of Day
13h 53m
Waning Gibbous, 94% of the Moon is Illuminated
Jul 24
Waning Gibbous
Jul 29
Last Quarter
Aug 6
New
Aug 14
First Quarter
Aug 20
Full

Hourly Weather History & Observations

Time (CDT) Temp. Heat Index Dew Point Humidity Pressure Visibility Wind Dir Wind Speed Gust Speed Precip Events Conditions
12:53 AM 82.9 °F 86.5 °F 69.1 °F 63% 29.86 in 10.0 mi South 8.1 mph - N/A   Clear
1:53 AM 82.0 °F 85.5 °F 69.1 °F 65% 29.87 in 10.0 mi SSW 9.2 mph - N/A   Clear
2:53 AM 81.0 °F 83.8 °F 68.0 °F 65% 29.88 in 10.0 mi SSW 8.1 mph - N/A   Clear
3:53 AM 80.1 °F 82.7 °F 68.0 °F 67% 29.88 in 10.0 mi SSW 5.8 mph - N/A   Clear
4:53 AM 78.1 °F - 68.0 °F 71% 29.89 in 10.0 mi SW 8.1 mph - N/A   Clear
5:53 AM 77.0 °F - 69.1 °F 76% 29.93 in 10.0 mi WNW 3.5 mph - N/A   Mostly Cloudy
6:17 AM 78.8 °F - 69.8 °F 74% 29.99 in 10.0 mi North 6.9 mph - N/A   Overcast
6:53 AM 79.0 °F - 70.0 °F 74% 29.96 in 10.0 mi West 4.6 mph - N/A   Overcast
7:07 AM 78.8 °F - 69.8 °F 74% 29.99 in 10.0 mi NW 3.5 mph - N/A   Mostly Cloudy
7:53 AM 78.1 °F - 70.0 °F 76% 29.97 in 10.0 mi North 9.2 mph - N/A   Overcast
8:07 AM 77.0 °F - 69.8 °F 78% 30.00 in 10.0 mi North 8.1 mph - N/A   Overcast
8:53 AM 78.1 °F - 70.0 °F 76% 29.96 in 10.0 mi SSW 4.6 mph - N/A   Mostly Cloudy
9:53 AM 79.0 °F - 71.1 °F 77% 29.94 in 10.0 mi SSW 10.4 mph - N/A   Clear
10:53 AM 82.9 °F 88.0 °F 72.0 °F 69% 29.93 in 10.0 mi SW 12.7 mph - N/A   Clear
11:53 AM 87.1 °F 93.6 °F 72.0 °F 61% 29.90 in 10.0 mi WSW 11.5 mph 21.9 mph N/A   Clear
12:53 PM 88.0 °F 94.7 °F 72.0 °F 59% 29.86 in 10.0 mi WSW 15.0 mph 26.5 mph N/A   Clear
1:53 PM 90.0 °F 97.9 °F 73.0 °F 57% 29.91 in 10.0 mi NW 8.1 mph - 0.00 in Rain Light Rain
2:53 PM 89.1 °F 98.0 °F 73.9 °F 61% 29.90 in 10.0 mi North 5.8 mph - 0.00 in   Mostly Cloudy
3:53 PM 89.1 °F 98.0 °F 73.9 °F 61% 29.90 in 10.0 mi NNW 6.9 mph - 0.00 in   Mostly Cloudy
4:53 PM 89.1 °F 97.0 °F 73.0 °F 59% 29.89 in 10.0 mi NNW 8.1 mph - N/A   Mostly Cloudy
5:53 PM 91.0 °F 98.2 °F 72.0 °F 53% 29.89 in 10.0 mi NNE 8.1 mph - N/A   Scattered Clouds
6:53 PM 87.1 °F 92.8 °F 71.1 °F 59% 29.89 in 10.0 mi NNW 5.8 mph - N/A   Partly Cloudy
7:53 PM 87.1 °F 92.0 °F 70.0 °F 57% 29.91 in 10.0 mi North 4.6 mph - N/A   Clear
8:53 PM 84.0 °F 87.8 °F 69.1 °F 61% 29.92 in 10.0 mi NNE 3.5 mph - N/A   Clear
9:53 PM 81.0 °F 84.1 °F 69.1 °F 67% 29.94 in 10.0 mi ENE 3.5 mph - N/A   Clear
10:53 PM 78.1 °F - 69.1 °F 74% 29.95 in 10.0 mi ENE 3.5 mph - N/A   Clear
11:53 PM 77.0 °F - 68.0 °F 74% 29.95 in 10.0 mi Calm Calm - N/A   Clear